#timestamp,LO_Frequency,Hit,StdDev 
1620493215.7,286047002.2,N
1620493235.5,286047008.9,N
1620493255.3,286047002.0,N
1620493275.2,286047001.7,N
1620493295.0,286047002.6,N
1620493295.9,286047002.6,N
1620493315.8,286047001.9,N
1620493335.6,286046995.1,N
1620493355.4,286046995.6,N
1620493375.3,286046993.5,N
1620493395.1,286046994.0,N
1620493445.9,286047005.9,E
1620493455.8,286047001.7,N
1620493475.6,286046997.0,P
1620493495.5,286046993.2,N
1620493515.3,286046991.8,N
1620493535.2,286046992.9,N
1620493555.9,286046996.4,N
1620493575.7,286046994.8,N
1620493595.6,286046988.2,Y
1620493615.4,286046991.5,P
1620493635.2,286046999.2,N
1620493655.1,286047011.9,P
1620493656.0,286047001.3,N
1620493675.8,286047012.3,N
1620493695.7,286047010.5,N
1620493715.5,286047005.3,N
1620493735.3,286047007.5,N
1620493755.2,286047007.3,N
1620493775.0,286047015.0,N
1620493775.9,286047015.0,N
1620493795.7,286047014.5,N
1620493815.6,286047013.0,N
1620493835.4,286047012.2,N
1620493855.3,286047006.4,N
1620493875.1,286047006.9,N
1620493895.8,286047007.4,N
1620493915.7,286047004.3,N
1620493935.5,286047000.7,N
1620493955.4,286046998.6,N
1620493975.2,286046997.9,N
1620493995.0,286046998.3,N
1620493995.9,286046998.3,N
1620494015.8,286047002.7,N
1620494035.6,286046998.8,N
1620494055.4,286047002.2,N
1620494075.3,286047000.1,N
1620494095.1,286047001.1,N
1620494115.9,286046998.9,N
1620494135.7,286046998.0,N
1620494155.5,286046993.8,N
1620494175.4,286046995.6,N
1620494195.2,286046999.1,N
1620494215.0,286046995.6,N
1620494216.0,286046995.6,N
1620494235.8,286046995.6,N
1620494255.6,286046993.4,N
1620494275.5,286046993.1,N
1620494295.3,286046991.4,N
1620494315.1,286046989.7,N
1620494335.9,286046987.1,N
1620494355.7,286046994.4,N
1620494375.6,286046990.6,N
1620494395.4,286046987.7,N
1620494415.2,286046989.7,N
1620494435.1,286046990.3,N
1620494436.0,286046990.3,N
1620494455.8,286046987.3,N
1620494475.6,286046994.5,N
1620494495.5,286046992.6,N
1620494515.3,286046991.6,N
1620494535.2,286046989.3,N
1620494555.9,286046998.1,N
1620494575.7,286047001.2,N
1620494595.6,286047005.6,N
1620494615.4,286047001.8,N
1620494635.2,286046996.6,N
1620494655.1,286046995.0,N
1620494656.0,286046995.0,N
1620494675.8,286046995.8,N
1620494695.7,286046995.1,N
1620494715.5,286046995.7,N
1620494735.3,286046990.6,N
1620494755.2,286046992.8,N
1620494775.0,286046996.2,N
1620494775.9,286046996.2,N
1620494795.8,286047004.0,N
1620494815.6,286047009.3,N
1620494835.4,286047013.3,N
1620494855.3,286047018.4,N
1620494875.1,286047016.1,N
1620494895.8,286047013.1,N
1620494915.7,286047009.3,N
1620494935.5,286047014.8,N
1620494955.4,286047017.4,N
1620494975.2,286047022.4,N
1620494995.0,286047022.8,N
1620494995.9,286047022.8,N
1620495015.8,286047019.6,N
1620495035.6,286047020.0,N
1620495055.4,286047014.4,N
1620495075.3,286047016.3,N
1620495095.1,286047017.3,N
1620495115.9,286047015.2,N
1620495135.7,286047012.0,N
1620495155.5,286047007.7,N
1620495175.4,286047007.7,N
1620495195.2,286047012.3,N
1620495215.1,286047008.1,N
1620495216.0,286047008.1,N
1620495235.8,286047008.1,N
1620495255.6,286047013.2,N
1620495275.5,286047019.6,N
1620495295.3,286047019.6,N
1620495315.1,286047020.6,Y
1620495335.9,286047016.8,P
1620495355.7,286047022.9,P
1620495375.6,286047028.4,P
1620495395.4,286047028.3,Y
1620495415.2,286047008.2,P
1620495465.1,286047014.8,E
1620495475.0,286047008.5,N
1620495475.9,286047008.5,P
1620495495.8,286046998.7,P
1620495515.6,286046994.8,N
1620495535.4,286046987.1,N
1620495555.3,286046989.3,N
1620495575.1,286046987.5,N
1620495595.9,286046992.7,N
1620495615.7,286046994.8,N
1620495635.5,286046987.4,N
1620495655.4,286046983.9,N
1620495675.2,286046981.2,N
1620495695.0,286046981.1,N
1620495695.9,286046981.1,N
1620495715.8,286046984.3,N
1620495735.6,286046984.9,N
1620495755.5,286046988.4,N
1620495775.3,286046993.5,N
1620495795.1,286047004.3,N
1620495815.9,286047001.7,N
1620495835.7,286046996.7,N
1620495855.5,286046996.5,N
1620495875.4,286046995.3,N
1620495895.2,286046990.1,N
1620495915.1,286046989.1,N
1620495916.0,286046989.1,N
1620495935.8,286046996.4,N
1620495955.6,286046993.7,N
1620495975.5,286046989.0,N
1620495995.3,286046986.9,N
1620496015.2,286046999.2,N
1620496035.9,286046996.6,N
1620496055.7,286046998.1,N
1620496075.6,286047001.6,N
1620496095.4,286047005.4,N
1620496115.2,286047014.9,N
1620496135.1,286047013.4,N
1620496136.0,286047013.4,N
1620496155.8,286047008.6,N
1620496175.7,286047004.5,N
1620496195.5,286047002.0,N
1620496215.3,286046997.9,N
1620496235.2,286046992.3,N
1620496255.0,286046991.2,N
1620496255.9,286046991.2,N
1620496275.7,286046992.8,N
1620496295.6,286046997.5,N
1620496315.4,286047005.6,N
1620496335.3,286047006.7,N
1620496355.1,286047003.1,N
1620496356.0,286047003.1,N
1620496375.8,286047002.5,N
1620496395.7,286047000.7,N
1620496415.5,286046995.8,N
1620496435.3,286046996.2,N
1620496455.2,286046992.3,N
1620496475.0,286046992.9,N
1620496475.9,286046992.9,N
1620496495.8,286046990.4,N
1620496515.6,286046989.1,N
1620496535.4,286046990.3,N
1620496555.3,286046999.6,N
1620496575.1,286046993.8,N
1620496595.9,286046993.9,N
1620496615.7,286046994.4,N
1620496635.5,286046998.8,N
1620496655.4,286046998.1,N
1620496675.2,286047004.3,N
1620496695.0,286046997.8,N
1620496695.9,286046997.8,N
1620496715.8,286046992.7,N
1620496735.6,286046990.1,N
1620496755.5,286046988.8,N
1620496775.3,286046988.7,N
1620496795.1,286046986.9,N
